User: anonymous   Login
Location: Clifton Park
(41.4873°N, 81.8024°W)
Time: 20:07:55
(UTC+00:00)
Language:

Shenzhou-11 Module - Orbit

View from above orbital plane
View from above orbital plane
View from above satellite
View from above satellite

Ground track
Ground track

The orbit data is extracted from the following two-line orbital elements,

1 41868U 16061G   20090.83074002 +.00035014 +86879-5 +11069-3 0  9992
2 41868 042.7888 271.2984 0013697 298.0828 195.0969 15.91549190193514
Epoch (UTC): 30 March 2020 19:56:15
Eccentricity: 0.0013697
inclination: 42.7888°
perigee height: 289 km
apogee height: 307 km
right ascension of ascending node: 271.2984°
argument of perigee: 298.0828°
revolutions per day: 15.91549190
mean anomaly at epoch: 195.0969°
orbit number at epoch: 19351

The dashed part of the orbit path shows where the satellite is in the earth's shadow,  

DLR